Regional Weather Roundup
Issued by NWS Little Rock, AR

Home | Current Version | Previous Version | Graphics & Text | Print | Product List | Glossary On
Versions: 1 2 3 4 5 6 7 8 9 10 11 12 13 14 15 16 17 18 19 20 21 22 23 24 25 26 27 28 29 30 31 32 33 34 35 36 37 38 39 40 41 42 43 44 45 46 47 48 49 50
000
ASUS44 KLZK 220505
RWRLZK

WEATHER ROUNDUP FOR ARKANSAS
NATIONAL WEATHER SERVICE LITTLE ROCK AR
1200 AM CDT SUN APR 22 2018

NOTE: "FAIR" INDICATES FEW OR NO CLOUDS BELOW 12,000 FEET WITH NO
SIGNIFICANT WEATHER AND/OR OBSTRUCTIONS TO VISIBILITY.

ARZ001-003-010-029-220600-
NORTHWEST ARKANSAS

CITY           SKY/WX    TMP DP  RH WIND       PRES   REMARKS
FAYETTEVILLE   CLOUDY    54  52  93 NE3       30.02F
FORT SMITH     CLOUDY    57  56  96 NE9       29.99F
HARRISON       CLOUDY    54  51  90 E3        30.04F
BENTONVILLE    RAIN      53  51  93 NE5       30.04F
ROGERS         LGT RAIN  53  51  93 CALM      30.04S
SILOAM SPGS    LGT RAIN  52  51  97 NE5       30.03F
$$

ARZ004-005-016-220600-
NORTH CENTRAL ARKANSAS

CITY           SKY/WX    TMP DP  RH WIND       PRES   REMARKS
BATESVILLE     RAIN      56  53  90 W5        30.08R
FLIPPIN        LGT RAIN  59  47  64 E6        30.05F
$$

ARZ040-041-220600-
WEST CENTRAL ARKANSAS

CITY           SKY/WX    TMP DP  RH WIND       PRES   REMARKS
MENA           CLOUDY   N/A N/A N/A E5        29.99F
MOUNT IDA      CLOUDY    56  56 100 CALM      29.96F
$$

ARZ009-017-025-026-028-220600-
NORTHEAST ARKANSAS

CITY           SKY/WX    TMP DP  RH WIND       PRES   REMARKS
CORNING        CLOUDY    61  52  72 CALM      30.09R
JONESBORO      CLOUDY    60  53  77 N3        30.07R
NEWPORT        CLOUDY    62  51  67 E9        30.06S
WALNUT RIDGE   FAIR      61  49  64 NE8       30.08F
BLYTHEVILLE    FAIR      68  42  38 SE6       30.08S
$$

ARZ022-023-033-042-044-220600-
CENTRAL ARKANSAS

CITY           SKY/WX    TMP DP  RH WIND       PRES   REMARKS
LITTLE ROCK    HVY RAIN  57  57 100 N5        30.08R FOG
N LITTLE ROCK    N/A     56  55  95 N3        30.05R
JACKSONVILLE   HVY RAIN  58  57  99 SW6       30.09R FOG
CONWAY         CLOUDY    59  57  94 SE5       30.06R
SEARCY         LGT RAIN  58  58 100 W5        30.08R
HOT SPRINGS    LGT RAIN  58  57  97 E22G31    29.95F
RUSSELLVILLE   TSTM      57  55  93 CALM      30.01F
CLINTON        CLOUDY    55  54  94 CALM      30.05F
$$

ARZ036-220600-
EAST ARKANSAS

CITY           SKY/WX    TMP DP  RH WIND       PRES   REMARKS
WEST MEMPHIS   CLOUDY    67  53  61 SE7       30.05R
$$

ARZ050-053-066-070-073-220600-
SOUTHWEST ARKANSAS

CITY           SKY/WX    TMP DP  RH WIND       PRES   REMARKS
ARKADELPHIA    HVY RAIN  57  57 100 E12       30.02F FOG
CAMDEN         HVY RAIN  57  55  94 N7G14     30.02R
TEXARKANA      CLOUDY    57  57 100 E6        29.97R
EL DORADO      TSTM      58  58 100 N12G25    30.01R FOG
DE QUEEN       CLOUDY    57  57 100 E3        29.97R
$$

ARZ056-057-069-220600-
SOUTHEAST ARKANSAS

CITY           SKY/WX    TMP DP  RH WIND       PRES   REMARKS
PINE BLUFF     RAIN      58  56  93 NW12      30.05R FOG
STUTTGART      RAIN      63  56  78 E3        30.04R
MONTICELLO     RAIN      61  59  93 CALM      29.99S FOG

$$





USA.gov is the U.S. government's official web portal to all federal, state and local government web resources and services.